WZZ398 LHBP-LTFM

Flight info

Callsign WZZ398
Flight time 1h 31m
Altitude 35000
Route VETIK DCT LUVEL DCT NOPTI DCT UBOGU DCT BUVAK DCT RIXEN
Aircraft A21N/M-SDE2E3FGHIRWXY/LB1

Departure

Time 2026-05-07 06:09
Airport Budapest Liszt Ferenc International Airport (LHBP)

Arrival

Time 2026-05-07 07:40
Airport İstanbul Airport (LTFM)
Time Latitude Longitude Altitude Speed Heading
2026-05-07 05:52 47.43300 19.25937 463 ft 0 kts 222°
2026-05-07 06:01 47.43302 19.25940 463 ft 3 kts 221°
2026-05-07 06:01 47.43323 19.25960 461 ft 4 kts 197°
2026-05-07 06:01 47.43349 19.25963 462 ft 4 kts 170°
2026-05-07 06:02 47.43371 19.25957 459 ft 2 kts 171°
2026-05-07 06:02 47.43396 19.25957 458 ft 4 kts 197°
2026-05-07 06:02 47.43419 19.25974 460 ft 4 kts 217°
2026-05-07 06:02 47.43434 19.25992 460 ft 0 kts 222°
2026-05-07 06:05 47.43430 19.25987 460 ft 3 kts 222°
2026-05-07 06:05 47.43424 19.25951 461 ft 5 kts 283°
2026-05-07 06:05 47.43446 19.25895 463 ft 8 kts 311°
2026-05-07 06:05 47.43486 19.25819 463 ft 10 kts 297°
2026-05-07 06:06 47.43528 19.25738 463 ft 8 kts 312°
2026-05-07 06:06 47.43583 19.25713 463 ft 10 kts 22°
2026-05-07 06:06 47.43642 19.25786 463 ft 12 kts 43°
2026-05-07 06:06 47.43709 19.25877 463 ft 14 kts 43°
2026-05-07 06:07 47.43785 19.25979 463 ft 16 kts 42°
2026-05-07 06:07 47.43870 19.26093 463 ft 17 kts 42°
2026-05-07 06:07 47.43954 19.26205 464 ft 14 kts 42°
2026-05-07 06:07 47.44032 19.26312 468 ft 16 kts 47°
2026-05-07 06:08 47.44071 19.26472 477 ft 11 kts 93°
2026-05-07 06:08 47.44034 19.26579 475 ft 13 kts 133°
2026-05-07 06:08 47.43966 19.26690 475 ft 22 kts 132°
2026-05-07 06:08 47.43705 19.27111 475 ft 94 kts 132°
2026-05-07 06:09 47.43100 19.28086 462 ft 159 kts 133°
2026-05-07 06:09 47.42316 19.29359 911 ft 167 kts 134°
2026-05-07 06:09 47.41577 19.30694 1555 ft 173 kts 123°
2026-05-07 06:09 47.41123 19.32362 2255 ft 174 kts 116°
2026-05-07 06:10 47.40532 19.33984 2721 ft 187 kts 124°
2026-05-07 06:10 47.39850 19.35743 3212 ft 206 kts 123°
2026-05-07 06:10 47.39125 19.37645 3804 ft 220 kts 123°
2026-05-07 06:10 47.38373 19.39702 4423 ft 237 kts 116°
2026-05-07 06:11 47.38166 19.42245 4787 ft 268 kts 80°
2026-05-07 06:11 47.38981 19.44789 5321 ft 284 kts 47°
2026-05-07 06:11 47.40449 19.46776 6155 ft 290 kts 40°
2026-05-07 06:11 47.41700 19.49128 6956 ft 294 kts 65°
2026-05-07 06:12 47.42211 19.51987 7771 ft 294 kts 90°
2026-05-07 06:12 47.42044 19.55024 8611 ft 294 kts 102°
2026-05-07 06:12 47.41708 19.58026 9444 ft 298 kts 103°
2026-05-07 06:12 47.41373 19.61064 10203 ft 304 kts 102°
2026-05-07 06:13 47.41036 19.64248 10572 ft 324 kts 102°
2026-05-07 06:13 47.40692 19.67652 10884 ft 344 kts 101°
2026-05-07 06:13 47.40345 19.71210 11166 ft 364 kts 101°
2026-05-07 06:13 47.39983 19.75012 11441 ft 384 kts 101°
2026-05-07 06:14 47.39603 19.79002 11705 ft 402 kts 101°
2026-05-07 06:14 47.39207 19.83149 12098 ft 413 kts 101°
2026-05-07 06:14 47.38798 19.87378 12674 ft 417 kts 101°
2026-05-07 06:14 47.38380 19.91633 13283 ft 421 kts 101°
2026-05-07 06:15 47.37957 19.95919 13859 ft 424 kts 101°
2026-05-07 06:15 47.37535 20.00243 14417 ft 426 kts 100°
2026-05-07 06:15 47.37114 20.04583 14993 ft 428 kts 101°
2026-05-07 06:15 47.36685 20.08939 15613 ft 430 kts 101°
2026-05-07 06:16 47.36247 20.13315 16266 ft 432 kts 101°
2026-05-07 06:16 47.35804 20.17718 16909 ft 434 kts 102°
2026-05-07 06:16 47.35062 20.22008 17527 ft 433 kts 112°
2026-05-07 06:16 47.33769 20.26018 18131 ft 431 kts 124°
2026-05-07 06:17 47.32033 20.29622 18657 ft 432 kts 130°
2026-05-07 06:17 47.30209 20.33063 19135 ft 434 kts 130°
2026-05-07 06:17 47.28341 20.36572 19593 ft 437 kts 130°
2026-05-07 06:17 47.26464 20.40126 20058 ft 440 kts 130°
2026-05-07 06:18 47.24585 20.43693 20530 ft 443 kts 130°
2026-05-07 06:18 47.22688 20.47296 20987 ft 446 kts 130°
2026-05-07 06:18 47.20784 20.50924 21438 ft 449 kts 130°
2026-05-07 06:18 47.18861 20.54566 21905 ft 452 kts 130°
2026-05-07 06:19 47.16934 20.58226 22373 ft 455 kts 130°
2026-05-07 06:19 47.14996 20.61912 22831 ft 458 kts 130°
2026-05-07 06:19 47.13043 20.65618 23286 ft 461 kts 130°
2026-05-07 06:19 47.11068 20.69351 23691 ft 464 kts 130°
2026-05-07 06:20 47.09078 20.73101 24010 ft 467 kts 130°
2026-05-07 06:20 47.07068 20.76877 24335 ft 470 kts 130°
2026-05-07 06:20 47.05052 20.80668 24700 ft 471 kts 130°
2026-05-07 06:20 47.03064 20.84406 25092 ft 471 kts 130°
2026-05-07 06:21 47.01025 20.88249 25493 ft 471 kts 131°
2026-05-07 06:21 46.99035 20.91988 25891 ft 471 kts 131°
2026-05-07 06:21 46.97014 20.95776 26307 ft 471 kts 131°
2026-05-07 06:21 46.94995 20.99556 26704 ft 471 kts 131°
2026-05-07 06:22 46.92980 21.03319 27085 ft 471 kts 131°
2026-05-07 06:22 46.88928 21.10872 27865 ft 472 kts 131°
2026-05-07 06:22 46.86897 21.14648 28257 ft 472 kts 132°
2026-05-07 06:23 46.84869 21.18415 28638 ft 472 kts 132°
2026-05-07 06:23 46.82839 21.22180 28998 ft 472 kts 132°
2026-05-07 06:23 46.80827 21.25907 29357 ft 472 kts 132°
2026-05-07 06:23 46.78790 21.29672 29737 ft 472 kts 132°
2026-05-07 06:24 46.76725 21.33414 30084 ft 471 kts 135°
2026-05-07 06:24 46.74484 21.36866 30344 ft 470 kts 139°
2026-05-07 06:24 46.72183 21.40261 30619 ft 470 kts 139°
2026-05-07 06:24 46.69880 21.43642 30908 ft 470 kts 139°
2026-05-07 06:25 46.67583 21.47019 31181 ft 470 kts 139°
2026-05-07 06:25 46.65274 21.50416 31450 ft 470 kts 139°
2026-05-07 06:25 46.62977 21.53793 31747 ft 471 kts 139°
2026-05-07 06:25 46.60665 21.57191 32015 ft 471 kts 139°
2026-05-07 06:26 46.58357 21.60571 32279 ft 471 kts 139°
2026-05-07 06:26 46.56043 21.63950 32505 ft 471 kts 139°
2026-05-07 06:26 46.53733 21.67329 32761 ft 471 kts 139°
2026-05-07 06:26 46.51418 21.70706 32995 ft 472 kts 139°
2026-05-07 06:27 46.49134 21.74039 33233 ft 472 kts 139°
2026-05-07 06:27 46.46787 21.77465 33461 ft 472 kts 139°
2026-05-07 06:27 46.44507 21.80794 33684 ft 472 kts 139°
2026-05-07 06:27 46.42188 21.84174 33904 ft 472 kts 139°
2026-05-07 06:28 46.39869 21.87540 34104 ft 472 kts 139°
2026-05-07 06:28 46.37512 21.90952 34317 ft 472 kts 139°
2026-05-07 06:28 46.35225 21.94258 34529 ft 471 kts 139°
2026-05-07 06:28 46.32906 21.97605 34755 ft 469 kts 139°
2026-05-07 06:29 46.30724 22.01005 34937 ft 472 kts 133°
2026-05-07 06:29 46.28654 22.04711 35032 ft 472 kts 132°
2026-05-07 06:29 46.24559 22.12144 35024 ft 471 kts 131°
2026-05-07 06:30 46.20489 22.19486 35012 ft 471 kts 132°
2026-05-07 06:30 46.16382 22.26844 35017 ft 471 kts 132°
2026-05-07 06:31 46.12261 22.34202 35008 ft 471 kts 132°
2026-05-07 06:31 46.08141 22.41544 35013 ft 472 kts 132°
2026-05-07 06:32 46.04008 22.48885 35020 ft 472 kts 132°
2026-05-07 06:32 45.99870 22.56227 35015 ft 472 kts 132°
2026-05-07 06:33 45.95725 22.63547 35020 ft 472 kts 132°
2026-05-07 06:33 45.91566 22.70870 35027 ft 472 kts 132°
2026-05-07 06:34 45.87412 22.78167 35014 ft 472 kts 132°
2026-05-07 06:34 45.83217 22.85354 35030 ft 471 kts 135°
2026-05-07 06:35 45.78684 22.92136 35024 ft 471 kts 135°
2026-05-07 06:35 45.74671 22.99572 35031 ft 475 kts 127°
2026-05-07 06:36 45.70749 23.07192 35026 ft 474 kts 131°
2026-05-07 06:36 45.66578 23.14503 35017 ft 474 kts 132°
2026-05-07 06:37 45.62367 23.21763 35035 ft 474 kts 132°
2026-05-07 06:37 45.58177 23.28986 35041 ft 474 kts 132°
2026-05-07 06:38 45.53964 23.36235 35049 ft 475 kts 132°
2026-05-07 06:38 45.49744 23.43479 35050 ft 475 kts 132°
2026-05-07 06:39 45.45511 23.50727 35061 ft 476 kts 132°
2026-05-07 06:39 45.41956 23.56800 35066 ft 476 kts 132°
2026-05-07 06:40 45.37730 23.64001 35070 ft 476 kts 132°
2026-05-07 06:40 45.33479 23.71227 35069 ft 477 kts 132°
2026-05-07 06:41 45.29213 23.78460 35073 ft 477 kts 132°
2026-05-07 06:41 45.24944 23.85679 35077 ft 477 kts 132°
2026-05-07 06:42 45.20661 23.92904 35071 ft 478 kts 132°
2026-05-07 06:42 45.16384 24.00100 35066 ft 478 kts 132°
2026-05-07 06:43 45.12117 24.07261 35072 ft 478 kts 132°
2026-05-07 06:43 45.07831 24.14479 35076 ft 479 kts 132°
2026-05-07 06:44 45.03544 24.21706 35069 ft 479 kts 132°
2026-05-07 06:44 44.99231 24.28915 35066 ft 480 kts 132°
2026-05-07 06:45 44.94913 24.36097 35067 ft 480 kts 132°
2026-05-07 06:45 44.90585 24.43270 35067 ft 480 kts 132°
2026-05-07 06:46 44.86266 24.50411 35072 ft 480 kts 132°
2026-05-07 06:46 44.81920 24.57568 35069 ft 481 kts 132°
2026-05-07 06:47 44.77574 24.64725 35069 ft 481 kts 132°
2026-05-07 06:47 44.73212 24.71876 35061 ft 481 kts 132°
2026-05-07 06:48 44.68851 24.79021 35064 ft 482 kts 132°
2026-05-07 06:48 44.64474 24.86165 35066 ft 482 kts 132°
2026-05-07 06:49 44.60086 24.93307 35064 ft 482 kts 132°
2026-05-07 06:49 44.55441 25.00081 35071 ft 481 kts 138°
2026-05-07 06:50 44.50811 25.06798 35066 ft 482 kts 133°
2026-05-07 06:50 44.46392 25.13876 35066 ft 483 kts 132°
2026-05-07 06:51 44.41994 25.20990 35068 ft 483 kts 132°
2026-05-07 06:51 44.37654 25.28170 35064 ft 483 kts 130°
2026-05-07 06:52 44.33321 25.35356 35066 ft 483 kts 131°
2026-05-07 06:52 44.29159 25.42717 35067 ft 483 kts 128°
2026-05-07 06:53 44.24882 25.49969 35065 ft 483 kts 132°
2026-05-07 06:53 44.20145 25.56595 35064 ft 482 kts 135°
2026-05-07 06:54 44.15622 25.63421 35063 ft 482 kts 132°
2026-05-07 06:54 44.11193 25.70439 35058 ft 482 kts 131°
2026-05-07 06:55 44.06765 25.77450 35059 ft 482 kts 132°
2026-05-07 06:55 44.02500 25.84656 35057 ft 482 kts 127°
2026-05-07 06:56 43.98317 25.91942 35061 ft 482 kts 130°
2026-05-07 06:56 43.93901 25.98948 35062 ft 482 kts 132°
2026-05-07 06:57 43.89444 26.05899 35067 ft 482 kts 132°
2026-05-07 06:57 43.84995 26.12850 35059 ft 482 kts 131°
2026-05-07 06:58 43.80530 26.19811 35062 ft 483 kts 132°
2026-05-07 06:58 43.76061 26.26731 35062 ft 483 kts 132°
2026-05-07 06:59 43.71578 26.33664 35067 ft 483 kts 132°
2026-05-07 06:59 43.67137 26.40520 35069 ft 483 kts 132°
2026-05-07 07:00 43.62642 26.47439 35073 ft 482 kts 132°
2026-05-07 07:00 43.58173 26.54342 35076 ft 482 kts 132°
2026-05-07 07:01 43.53712 26.61191 35081 ft 483 kts 131°
2026-05-07 07:01 43.49221 26.68069 35091 ft 483 kts 132°
2026-05-07 07:02 43.44720 26.74944 35100 ft 483 kts 132°
2026-05-07 07:02 43.40247 26.81766 35096 ft 483 kts 132°
2026-05-07 07:03 43.35741 26.88617 35103 ft 483 kts 132°
2026-05-07 07:03 43.31210 26.95457 35115 ft 484 kts 132°
2026-05-07 07:04 43.26683 27.02298 35115 ft 484 kts 131°
2026-05-07 07:04 43.22157 27.09142 35117 ft 484 kts 132°
2026-05-07 07:05 43.17618 27.15953 35121 ft 484 kts 132°
2026-05-07 07:05 43.13077 27.22747 35123 ft 484 kts 132°
2026-05-07 07:06 43.08540 27.29556 35129 ft 484 kts 132°
2026-05-07 07:06 43.03990 27.36357 35129 ft 483 kts 132°
2026-05-07 07:07 42.99463 27.43092 35134 ft 483 kts 132°
2026-05-07 07:07 42.94925 27.49867 35138 ft 483 kts 132°
2026-05-07 07:08 42.90393 27.56618 35135 ft 483 kts 132°
2026-05-07 07:08 42.85871 27.63372 35136 ft 482 kts 132°
2026-05-07 07:09 42.81333 27.70111 35138 ft 481 kts 132°
2026-05-07 07:09 42.79066 27.73461 34798 ft 480 kts 132°
2026-05-07 07:09 42.76806 27.76820 34502 ft 482 kts 132°
2026-05-07 07:10 42.74533 27.80180 34247 ft 483 kts 132°
2026-05-07 07:10 42.72247 27.83547 33974 ft 484 kts 132°
2026-05-07 07:10 42.69964 27.86924 33709 ft 486 kts 132°
2026-05-07 07:10 42.67680 27.90303 33449 ft 487 kts 132°
2026-05-07 07:11 42.65374 27.93701 33185 ft 488 kts 132°
2026-05-07 07:11 42.63084 27.97069 32924 ft 489 kts 132°
2026-05-07 07:11 42.60756 28.00473 32660 ft 490 kts 132°
2026-05-07 07:11 42.58433 28.03867 32390 ft 491 kts 132°
2026-05-07 07:12 42.56105 28.07270 32139 ft 492 kts 132°
2026-05-07 07:12 42.53807 28.10639 31892 ft 494 kts 132°
2026-05-07 07:12 42.51477 28.14064 31645 ft 495 kts 132°
2026-05-07 07:12 42.49137 28.17493 31391 ft 496 kts 132°
2026-05-07 07:13 42.46781 28.20933 31147 ft 497 kts 132°
2026-05-07 07:13 42.44420 28.24368 30897 ft 499 kts 132°
2026-05-07 07:13 42.42058 28.27804 30656 ft 500 kts 132°
2026-05-07 07:13 42.39686 28.31255 30416 ft 501 kts 132°
2026-05-07 07:14 42.37306 28.34703 30166 ft 502 kts 132°
2026-05-07 07:14 42.34912 28.38164 29888 ft 503 kts 132°
2026-05-07 07:14 42.32527 28.41612 29606 ft 503 kts 132°
2026-05-07 07:14 42.30138 28.45066 29323 ft 503 kts 132°
2026-05-07 07:15 42.27745 28.48523 29054 ft 503 kts 132°
2026-05-07 07:15 42.25358 28.51977 28792 ft 504 kts 132°
2026-05-07 07:15 42.22953 28.55443 28512 ft 504 kts 132°
2026-05-07 07:15 42.20556 28.58881 27930 ft 501 kts 132°
2026-05-07 07:16 42.18174 28.62310 26980 ft 499 kts 131°
2026-05-07 07:16 42.15812 28.65713 25955 ft 498 kts 131°
2026-05-07 07:16 42.13443 28.69119 24972 ft 497 kts 131°
2026-05-07 07:16 42.11073 28.72511 24118 ft 495 kts 131°
2026-05-07 07:17 42.08643 28.75666 23275 ft 493 kts 140°
2026-05-07 07:17 42.05708 28.77986 22768 ft 494 kts 157°
2026-05-07 07:17 42.02369 28.79225 22432 ft 498 kts 173°
2026-05-07 07:17 41.98919 28.79290 22145 ft 492 kts 188°
2026-05-07 07:18 41.95585 28.78377 21882 ft 488 kts 195°
2026-05-07 07:18 41.92249 28.77564 21622 ft 488 kts 188°
2026-05-07 07:18 41.88920 28.77338 21377 ft 487 kts 181°
2026-05-07 07:18 41.85530 28.77418 21118 ft 485 kts 179°
2026-05-07 07:19 41.82161 28.77579 20864 ft 483 kts 179°
2026-05-07 07:19 41.78841 28.77678 20608 ft 481 kts 182°
2026-05-07 07:19 41.75571 28.76992 20333 ft 469 kts 199°
2026-05-07 07:19 41.72779 28.75348 20057 ft 445 kts 214°
2026-05-07 07:20 41.70462 28.72800 19783 ft 420 kts 231°
2026-05-07 07:20 41.68900 28.69663 19550 ft 395 kts 249°
2026-05-07 07:20 41.68089 28.66267 19339 ft 373 kts 261°
2026-05-07 07:20 41.67465 28.62948 19153 ft 370 kts 257°
2026-05-07 07:21 41.66316 28.59688 18935 ft 406 kts 240°
2026-05-07 07:21 41.64592 28.56537 18739 ft 433 kts 236°
2026-05-07 07:21 41.62709 28.53258 18531 ft 450 kts 236°
2026-05-07 07:21 41.60824 28.49942 18299 ft 447 kts 236°
2026-05-07 07:22 41.58960 28.46621 18015 ft 446 kts 236°
2026-05-07 07:22 41.56896 28.43611 17242 ft 444 kts 223°
2026-05-07 07:22 41.54469 28.41035 16228 ft 443 kts 219°
2026-05-07 07:22 41.52041 28.38574 15517 ft 435 kts 219°
2026-05-07 07:23 41.49665 28.36120 14941 ft 430 kts 219°
2026-05-07 07:23 41.47329 28.33669 14484 ft 425 kts 220°
2026-05-07 07:23 41.45027 28.31232 14045 ft 418 kts 220°
2026-05-07 07:23 41.42761 28.28823 13451 ft 415 kts 220°
2026-05-07 07:24 41.40512 28.26431 12806 ft 412 kts 220°
2026-05-07 07:24 41.38287 28.24066 12245 ft 407 kts 220°
2026-05-07 07:24 41.36105 28.21758 11774 ft 390 kts 220°
2026-05-07 07:24 41.34043 28.19579 11387 ft 368 kts 220°
2026-05-07 07:25 41.30261 28.15579 10750 ft 329 kts 220°
2026-05-07 07:25 41.28530 28.13753 10478 ft 315 kts 221°
2026-05-07 07:25 41.26849 28.11972 10310 ft 302 kts 221°
2026-05-07 07:26 41.25250 28.10251 10174 ft 290 kts 224°
2026-05-07 07:26 41.23633 28.08610 10031 ft 301 kts 207°
2026-05-07 07:26 41.21602 28.07991 9893 ft 304 kts 181°
2026-05-07 07:26 41.20184 28.08226 9816 ft 305 kts 165°
2026-05-07 07:27 41.18293 28.09443 9689 ft 304 kts 141°
2026-05-07 07:27 41.16894 28.11478 9541 ft 301 kts 120°
2026-05-07 07:27 41.15955 28.13949 9437 ft 300 kts 112°
2026-05-07 07:27 41.15099 28.16467 9304 ft 299 kts 112°
2026-05-07 07:28 41.14214 28.19008 9162 ft 299 kts 113°
2026-05-07 07:28 41.13325 28.21495 9043 ft 299 kts 114°
2026-05-07 07:28 41.12424 28.23988 8902 ft 298 kts 114°
2026-05-07 07:28 41.11535 28.26423 8780 ft 298 kts 114°
2026-05-07 07:29 41.10624 28.28897 8649 ft 298 kts 115°
2026-05-07 07:29 41.09715 28.31366 8520 ft 298 kts 115°
2026-05-07 07:29 41.08810 28.33835 8395 ft 297 kts 115°
2026-05-07 07:29 41.07903 28.36301 8263 ft 297 kts 115°
2026-05-07 07:30 41.06997 28.38754 8076 ft 293 kts 115°
2026-05-07 07:30 41.06111 28.41149 7550 ft 288 kts 115°
2026-05-07 07:30 41.05227 28.43527 7005 ft 287 kts 116°
2026-05-07 07:30 41.04362 28.45853 6809 ft 279 kts 116°
2026-05-07 07:31 41.03514 28.48129 6656 ft 270 kts 116°
2026-05-07 07:31 41.02704 28.50304 6513 ft 261 kts 116°
2026-05-07 07:31 41.01915 28.52426 6334 ft 253 kts 116°
2026-05-07 07:31 41.01140 28.54504 6033 ft 251 kts 116°
2026-05-07 07:32 41.00367 28.56574 5709 ft 250 kts 116°
2026-05-07 07:32 40.99600 28.58639 5366 ft 248 kts 116°
2026-05-07 07:32 40.98837 28.60689 5064 ft 248 kts 116°
2026-05-07 07:32 40.98085 28.62696 4814 ft 245 kts 117°
2026-05-07 07:33 40.97347 28.64685 4614 ft 237 kts 114°
2026-05-07 07:33 40.96889 28.66744 4427 ft 230 kts 93°
2026-05-07 07:33 40.97202 28.68737 4209 ft 218 kts 56°
2026-05-07 07:33 40.98280 28.69984 4114 ft 199 kts 27°
2026-05-07 07:34 40.99404 28.70960 4002 ft 188 kts 31°
2026-05-07 07:34 41.00468 28.71835 3941 ft 169 kts 22°
2026-05-07 07:34 41.01514 28.72405 3931 ft 162 kts 13°
2026-05-07 07:34 41.02612 28.72773 3982 ft 163 kts
2026-05-07 07:35 41.03826 28.73012 4022 ft 181 kts
2026-05-07 07:35 41.05074 28.73148 3991 ft 179 kts 359°
2026-05-07 07:35 41.06327 28.73208 3991 ft 180 kts 357°
2026-05-07 07:35 41.07576 28.73206 3909 ft 179 kts 355°
2026-05-07 07:36 41.08817 28.73184 3734 ft 179 kts 355°
2026-05-07 07:36 41.10066 28.73156 3496 ft 179 kts 355°
2026-05-07 07:36 41.11306 28.73127 3265 ft 177 kts 355°
2026-05-07 07:36 41.12525 28.73099 3004 ft 173 kts 355°
2026-05-07 07:37 41.13723 28.73070 2747 ft 175 kts 355°
2026-05-07 07:37 41.14906 28.73044 2532 ft 164 kts 355°
2026-05-07 07:37 41.16016 28.73018 2380 ft 159 kts 355°
2026-05-07 07:37 41.17130 28.72992 2235 ft 160 kts 356°
2026-05-07 07:38 41.18175 28.72970 2049 ft 142 kts 356°
2026-05-07 07:38 41.19156 28.72946 1818 ft 141 kts 356°
2026-05-07 07:38 41.20059 28.72926 1597 ft 141 kts 357°
2026-05-07 07:38 41.21033 28.72905 1379 ft 139 kts 357°
2026-05-07 07:39 41.21996 28.72873 1267 ft 138 kts 356°
2026-05-07 07:39 41.22956 28.72844 1060 ft 138 kts 358°
2026-05-07 07:39 41.23906 28.72844 803 ft 136 kts 358°
2026-05-07 07:39 41.24857 28.72821 651 ft 137 kts 357°
2026-05-07 07:40 41.25801 28.72794 487 ft 137 kts 356°
2026-05-07 07:40 41.26764 28.72768 353 ft 131 kts 356°
2026-05-07 07:40 41.27535 28.72746 337 ft 83 kts 359°
2026-05-07 07:40 41.27837 28.72741 339 ft 27 kts
2026-05-07 07:41 41.28017 28.72799 339 ft 27 kts 25°
2026-05-07 07:41 41.28130 28.72886 338 ft 14 kts 51°
2026-05-07 07:41 41.28092 28.72961 337 ft 12 kts 172°
2026-05-07 07:41 41.28001 28.72963 335 ft 14 kts 181°
2026-05-07 07:42 41.27894 28.72964 339 ft 17 kts 178°
2026-05-07 07:42 41.27768 28.72969 339 ft 19 kts 178°
2026-05-07 07:42 41.27631 28.72971 335 ft 21 kts 179°
2026-05-07 07:42 41.27480 28.72974 339 ft 22 kts 179°
2026-05-07 07:43 41.27319 28.72979 339 ft 24 kts 179°
2026-05-07 07:43 41.27146 28.72983 339 ft 24 kts 179°
2026-05-07 07:43 41.26984 28.72985 339 ft 24 kts 179°
2026-05-07 07:43 41.26863 28.73011 339 ft 12 kts 113°
2026-05-07 07:44 41.26866 28.73136 338 ft 14 kts 88°
2026-05-07 07:44 41.26868 28.73267 337 ft 8 kts 88°
2026-05-07 07:44 41.26841 28.73327 335 ft 9 kts 153°
2026-05-07 07:44 41.26768 28.73334 334 ft 12 kts 179°
2026-05-07 07:45 41.26674 28.73336 337 ft 15 kts 179°
2026-05-07 07:45 41.26568 28.73367 338 ft 16 kts 161°
2026-05-07 07:45 41.26459 28.73418 338 ft 17 kts 161°
2026-05-07 07:45 41.26343 28.73472 336 ft 18 kts 160°
2026-05-07 07:46 41.26221 28.73520 336 ft 18 kts 174°
2026-05-07 07:46 41.26122 28.73502 339 ft 13 kts 196°
2026-05-07 07:46 41.26036 28.73468 339 ft 9 kts 197°
2026-05-07 07:46 41.25995 28.73479 335 ft 6 kts 118°
2026-05-07 07:47 41.25985 28.73521 336 ft 4 kts 106°
2026-05-07 07:47 41.25976 28.73560 335 ft 2 kts 107°
2026-05-07 07:47 41.25975 28.73566 336 ft 0 kts 107°
2026-05-07 07:47 41.25975 28.73567 336 ft 0 kts 107°